TimeMST,TemperatureF,Dew PointF,Humidity,Sea Level PressureIn,VisibilityMPH,Wind Direction,Wind SpeedMPH,Gust SpeedMPH,PrecipitationIn,Events,Conditions,WindDirDegrees,DateUTC
12:53 AM,30.0,19.9,66,29.95,10.0,WSW,26.5,34.5,0.00,,Overcast,240,2012-12-11 07:53:00
1:53 AM,30.9,19.9,64,29.91,10.0,SW,27.6,34.5,N/A,,Overcast,230,2012-12-11 08:53:00
2:53 AM,33.1,19.9,59,29.91,10.0,WSW,21.9,33.4,N/A,,Overcast,250,2012-12-11 09:53:00
3:53 AM,32.0,19.9,61,29.91,10.0,WSW,19.6,-,N/A,,Overcast,240,2012-12-11 10:53:00
4:53 AM,33.1,19.9,59,29.88,10.0,WSW,21.9,-,N/A,,Overcast,240,2012-12-11 11:53:00
5:53 AM,33.1,19.0,56,29.83,10.0,WSW,23.0,29.9,N/A,,Mostly Cloudy,240,2012-12-11 12:53:00
6:53 AM,35.1,19.9,54,29.76,7.0,SW,40.3,51.8,N/A,,Clear,220,2012-12-11 13:53:00
7:31 AM,33.8,21.2,60,29.66,2.5,WSW,40.3,52.9,0.00,,Scattered Clouds,250,2012-12-11 14:31:00
7:38 AM,33.8,21.2,60,29.65,2.5,SW,43.7,57.5,0.00,Snow,Light Snow,230,2012-12-11 14:38:00
7:53 AM,33.1,21.9,64,29.74,1.8,SW,40.3,56.4,0.00,Snow,Light Snow,230,2012-12-11 14:53:00
8:18 AM,33.8,21.2,60,29.67,3.0,SW,32.2,54.1,0.02,Snow,Light Snow,230,2012-12-11 15:18:00
8:27 AM,33.8,21.2,60,29.65,2.0,SW,38.0,54.1,0.02,Snow,Light Snow,220,2012-12-11 15:27:00
8:53 AM,36.0,21.0,55,29.72,2.5,SW,26.5,64.4,0.02,,Overcast,230,2012-12-11 15:53:00
9:13 AM,35.6,21.2,56,29.65,8.0,SW,31.1,43.7,0.00,,Overcast,220,2012-12-11 16:13:00
9:50 AM,35.6,21.2,56,29.65,2.0,SSW,40.3,54.1,0.00,,Mostly Cloudy,210,2012-12-11 16:50:00
9:53 AM,35.1,21.9,59,29.73,3.0,SSW,32.2,50.6,0.00,,Mostly Cloudy,210,2012-12-11 16:53:00
10:53 AM,36.0,21.9,57,29.70,5.0,SW,38.0,51.8,0.00,,Partly Cloudy,220,2012-12-11 17:53:00
11:33 AM,35.6,23.0,60,29.60,2.5,SW,36.8,59.8,0.00,,Partly Cloudy,230,2012-12-11 18:33:00
11:40 AM,35.6,24.8,65,29.60,5.0,SW,38.0,50.6,0.00,,Haze,220,2012-12-11 18:40:00
11:53 AM,36.0,23.0,59,29.66,8.0,SW,35.7,47.2,0.00,,Clear,230,2012-12-11 18:53:00
12:42 PM,35.6,23.0,60,29.56,2.0,SW,48.3,58.7,0.00,,Clear,220,2012-12-11 19:42:00
12:49 PM,35.6,24.8,65,29.56,1.5,SW,42.6,59.8,0.02,Snow,Light Snow,230,2012-12-11 19:49:00
12:53 PM,37.0,24.1,59,29.62,1.5,SW,42.6,72.5,0.02,Snow,Light Snow,220,2012-12-11 19:53:00
1:09 PM,35.6,24.8,65,29.53,1.0,SW,46.0,64.4,0.04,Snow,Light Snow,220,2012-12-11 20:09:00
1:19 PM,35.6,24.8,65,29.52,1.5,SW,47.2,59.8,0.07,Snow,Light Snow,230,2012-12-11 20:19:00
1:32 PM,35.6,24.8,65,29.51,1.0,SW,49.5,64.4,0.07,Snow,Light Snow,220,2012-12-11 20:32:00
1:53 PM,37.0,24.1,59,29.57,1.8,SW,50.6,61.0,0.09,Snow,Light Snow,220,2012-12-11 20:53:00
2:03 PM,37.4,24.8,60,29.51,2.5,SW,47.2,62.1,0.00,Snow,Light Snow,230,2012-12-11 21:03:00
2:10 PM,37.4,24.8,60,29.50,4.0,SW,49.5,59.8,0.00,,Clear,220,2012-12-11 21:10:00
2:53 PM,39.9,21.0,47,29.56,10.0,WSW,33.4,48.3,0.00,,Clear,240,2012-12-11 21:53:00
3:53 PM,39.0,21.0,49,29.57,10.0,WSW,36.8,57.5,N/A,,Mostly Cloudy,240,2012-12-11 22:53:00
4:53 PM,39.0,21.0,49,29.57,10.0,WSW,34.5,54.1,N/A,,Partly Cloudy,240,2012-12-11 23:53:00
5:53 PM,39.0,21.9,50,29.55,10.0,SW,43.7,62.1,N/A,,Overcast,220,2012-12-12 00:53:00
6:53 PM,37.9,23.0,55,29.54,10.0,SW,36.8,47.2,N/A,,Overcast,220,2012-12-12 01:53:00
7:53 PM,39.0,23.0,53,29.54,10.0,SW,38.0,48.3,N/A,,Overcast,220,2012-12-12 02:53:00
8:53 PM,39.0,24.1,55,29.51,10.0,SW,35.7,48.3,N/A,,Mostly Cloudy,220,2012-12-12 03:53:00
9:53 PM,39.0,24.1,55,29.51,10.0,SW,35.7,42.6,N/A,,Mostly Cloudy,220,2012-12-12 04:53:00
10:53 PM,41.0,24.1,51,29.50,10.0,SW,34.5,44.9,N/A,,Mostly Cloudy,220,2012-12-12 05:53:00
11:53 PM,41.0,24.1,51,29.52,10.0,SSW,35.7,48.3,N/A,,Overcast,210,2012-12-12 06:53:00